{"data":{"norad_id":42963,"epoch":"2026-05-25T02:19:18.651360Z","epoch_age_seconds":60450,"freshness":"FRESH","line1":"1 42963U 17061J   26145.09674365  .00000058  00000+0  13826-4 0  9993","line2":"2 42963  86.3991  34.9702 0002144  82.3117 277.8322 14.34218115451539","mean_motion":14.34218115,"eccentricity":0.0002144,"inclination_deg":86.3991,"raan_deg":34.9702,"arg_perigee_deg":82.3117,"mean_anomaly_deg":277.8322,"bstar":1.3826e-5,"rev_number":45153,"period_min":100.40313847242,"perigee_km":776.13173612991,"apogee_km":779.2001444307,"semimajor_km":7155.8029402803,"source":"CELESTRAK","updated_at":"2026-05-25T13:38:14.804000Z"}}